Total_Precipitation_Accumulation
0.01 0.03 0.08 0.05 0.04 0.04 0.06 0.07 0.08 0.08 0.08 0.08 0.07 0.05 0.04 0.03 0.03 0.02 0.01 0.01 0.02 0.03 0.04 0.05 0.07 0.08 0.09 0.10 0.10 0.09 0.08 0.07 0.10 0.12 0.13 0.16 0.25 0.37 0.48 0.48 0.53 0.45 0.30
0.00 0.02 0.06 0.04 0.03 0.04 0.04 0.06 0.07 0.09 0.09 0.09 0.08 0.05 0.04 0.03 0.02 0.02 0.01 0.02 0.02 0.03 0.03 0.05 0.06 0.05 0.06 0.05 0.05 0.05 0.05 0.07 0.12 0.15 0.19 0.20 0.30 0.43 0.43 0.37 0.51 0.37 0.26
0.00 0.01 0.04 0.04 0.03 0.03 0.03 0.04 0.05 0.07 0.08 0.08 0.07 0.06 0.05 0.03 0.02 0.02 0.02 0.02 0.03 0.03 0.04 0.04 0.04 0.03 0.04 0.03 0.03 0.04 0.05 0.10 0.19 0.28 0.41 0.40 0.24 0.41 0.48 0.40 0.36 0.21 0.22
0.01 0.02 0.03 0.05 0.04 0.03 0.03 0.04 0.05 0.06 0.07 0.08 0.07 0.06 0.05 0.04 0.04 0.05 0.03 0.03 0.04 0.05 0.05 0.04 0.03 0.03 0.03 0.03 0.03 0.04 0.06 0.10 0.18 0.31 0.62 0.47 0.19 0.23 0.32 0.28 0.26 0.19 0.19
0.03 0.03 0.07 0.08 0.05 0.03 0.03 0.03 0.05 0.05 0.06 0.07 0.06 0.06 0.05 0.05 0.06 0.06 0.05 0.04 0.05 0.06 0.06 0.04 0.03 0.03 0.03 0.04 0.04 0.05 0.07 0.11 0.19 0.33 0.42 0.44 0.41 0.25 0.21 0.21 0.22 0.20 0.18
0.04 0.05 0.07 0.09 0.07 0.04 0.03 0.03 0.04 0.05 0.06 0.07 0.07 0.06 0.07 0.07 0.07 0.06 0.05 0.04 0.05 0.07 0.07 0.05 0.03 0.03 0.03 0.04 0.05 0.06 0.08 0.14 0.22 0.28 0.25 0.31 0.39 0.31 0.22 0.27 0.32 0.29 0.20
0.05 0.06 0.06 0.08 0.07 0.06 0.05 0.04 0.04 0.05 0.06 0.07 0.07 0.06 0.06 0.06 0.07 0.07 0.06 0.06 0.07 0.09 0.10 0.06 0.04 0.04 0.04 0.04 0.05 0.06 0.11 0.17 0.25 0.26 0.24 0.32 0.34 0.25 0.30 0.45 0.57 0.49 0.36
0.06 0.06 0.07 0.10 0.10 0.09 0.07 0.07 0.06 0.06 0.07 0.08 0.07 0.06 0.06 0.06 0.07 0.08 0.09 0.09 0.10 0.10 0.10 0.07 0.05 0.05 0.04 0.05 0.07 0.08 0.12 0.17 0.19 0.20 0.20 0.30 0.22 0.22 0.39 0.61 0.72 0.70 0.62
0.12 0.16 0.11 0.09 0.11 0.12 0.11 0.10 0.09 0.08 0.08 0.08 0.09 0.08 0.07 0.07 0.08 0.11 0.14 0.15 0.14 0.14 0.14 0.10 0.06 0.05 0.06 0.07 0.07 0.09 0.12 0.17 0.22 0.27 0.24 0.30 0.23 0.30 0.55 0.74 0.81 0.84 0.83
0.30 0.25 0.16 0.13 0.15 0.13 0.11 0.11 0.12 0.11 0.10 0.10 0.10 0.10 0.10 0.10 0.12 0.17 0.18 0.22 0.25 0.25 0.23 0.19 0.14 0.11 0.10 0.10 0.08 0.08 0.12 0.15 0.17 0.24 0.32 0.32 0.31 0.45 0.65 0.77 0.92 0.98 0.95
0.43 0.32 0.16 0.15 0.16 0.16 0.14 0.14 0.17 0.17 0.16 0.15 0.17 0.18 0.19 0.20 0.27 0.39 0.41 0.47 0.47 0.45 0.42 0.38 0.35 0.30 0.25 0.17 0.17 0.22 0.19 0.13 0.15 0.27 0.33 0.32 0.40 0.64 0.84 0.93 1.00 1.03 1.01
0.29 0.24 0.22 0.21 0.20 0.19 0.19 0.27 0.31 0.30 0.34 0.29 0.36 0.43 0.45 0.53 0.51 0.46 0.65 0.85 0.88 0.92 0.86 0.82 0.79 0.62 0.43 0.36 0.75 0.95 0.36 0.24 0.27 0.28 0.36 0.46 0.66 0.94 1.22 1.17 1.05 0.99 0.93
0.41 0.34 0.32 0.29 0.30 0.29 0.33 0.35 0.41 0.46 0.59 0.48 0.47 0.60 0.79 0.81 0.65 0.62 0.73 0.96 1.16 1.19 1.07 1.30 1.37 0.98 0.87 1.01 1.27 1.22 0.68 0.56 0.41 0.35 0.43 0.68 0.97 1.29 1.58 1.52 1.26 1.08 0.96
0.64 0.54 0.47 0.43 0.41 0.43 0.47 0.48 0.54 0.56 0.71 0.68 0.79 0.88 1.03 1.15 1.04 1.01 1.07 1.08 1.21 1.33 1.55 1.66 1.73 1.55 1.45 1.37 1.45 1.25 1.03 0.97 0.69 0.79 0.96 1.17 1.25 1.40 1.79 1.83 1.57 1.35 1.18
0.87 0.71 0.65 0.69 0.77 0.76 0.82 0.86 0.85 0.87 0.95 1.00 1.14 1.16 1.18 1.33 1.29 1.34 1.32 1.38 1.33 1.45 1.67 1.87 1.84 1.88 1.91 1.77 1.52 1.37 1.35 1.29 1.17 1.30 1.34 1.59 1.50 1.45 1.81 1.91 1.73 1.55 1.40
1.27 1.19 1.11 1.14 1.33 1.33 1.30 1.21 1.24 1.23 1.24 1.23 1.33 1.33 1.41 1.55 1.62 1.54 1.38 1.43 1.41 1.51 1.61 1.80 1.90 2.15 2.09 2.00 1.58 1.42 1.44 1.49 1.42 1.51 1.56 1.81 1.70 1.48 1.62 1.75 1.81 1.75 1.60
1.59 1.72 1.75 1.86 1.94 1.92 1.86 1.69 1.59 1.60 1.53 1.55 1.58 1.58 1.71 1.74 1.80 1.73 1.55 1.46 1.54 1.62 1.68 1.74 1.86 2.12 2.05 1.92 1.63 1.53 1.48 1.39 1.24 1.28 1.40 1.54 1.51 1.42 1.47 1.55 1.67 1.69 1.66
1.67 1.92 2.21 2.43 2.43 2.35 2.24 2.05 1.87 1.79 1.74 1.71 1.70 1.69 1.72 1.78 1.81 1.78 1.57 1.42 1.64 1.67 1.70 1.82 1.89 2.01 2.08 2.09 1.82 1.59 1.49 1.38 1.18 1.20 1.20 1.22 1.29 1.09 1.26 1.48 1.60 1.65 1.80
1.92 2.29 2.78 2.90 2.88 2.77 2.50 2.24 2.07 2.01 1.88 1.76 1.74 1.65 1.66 1.74 1.73 1.77 1.51 1.38 1.64 1.79 1.78 1.67 1.89 2.10 2.07 2.09 1.83 1.59 1.37 1.20 1.03 1.00 1.05 1.00 1.04 1.02 1.04 1.14 1.27 1.38 1.73
2.32 2.71 2.99 3.11 3.23 3.14 3.01 2.74 2.39 2.16 1.94 1.81 1.71 1.58 1.48 1.43 1.54 1.74 1.47 1.45 1.70 1.76 1.72 1.81 1.95 2.12 2.00 2.05 1.86 1.42 1.17 0.92 0.88 0.79 0.73 0.75 0.71 0.68 0.72 0.90 1.19 1.13 1.45
2.32 2.59 3.00 3.24 3.22 3.12 3.06 2.76 2.35 1.98 1.78 1.62 1.49 1.39 1.39 1.44 1.58 1.85 1.61 1.62 1.67 1.61 1.61 1.80 1.94 1.87 1.75 2.16 2.09 1.37 0.88 0.70 0.62 0.47 0.49 0.50 0.46 0.49 0.62 0.87 1.06 1.12 1.09
1.85 2.20 2.49 2.59 2.33 2.15 2.07 2.02 1.88 1.81 1.61 1.46 1.41 1.45 1.43 1.49 1.56 1.68 1.69 1.62 1.62 1.60 1.45 1.54 1.80 1.68 1.40 1.85 2.01 1.79 1.15 0.72 0.50 0.35 0.37 0.38 0.42 0.55 0.61 0.68 0.87 1.05 1.05
1.46 1.63 1.77 1.68 1.52 1.48 1.52 1.60 1.63 1.71 1.60 1.58 1.65 1.71 1.56 1.57 1.59 1.68 1.59 1.45 1.41 1.42 1.30 1.31 1.52 1.59 1.38 1.44 1.80 2.05 1.56 0.94 0.68 0.45 0.47 0.50 0.61 0.73 0.73 0.78 0.86 0.97 1.04
1.13 1.24 1.40 1.35 1.30 1.37 1.57 1.66 1.69 1.81 1.91 2.05 2.23 2.18 2.02 1.85 1.73 1.64 1.48 1.32 1.17 1.14 1.11 1.08 1.25 1.37 1.38 1.18 1.33 1.47 1.43 1.32 1.18 0.76 0.56 0.60 0.75 0.82 0.85 0.90 0.92 0.97 1.06
0.97 1.02 1.21 1.32 1.45 1.64 1.80 1.89 1.98 2.04 2.09 2.08 2.10 2.03 1.93 1.82 1.68 1.53 1.41 1.29 1.18 1.08 1.02 1.00 1.05 1.09 1.12 1.04 1.09 1.16 1.24 1.25 1.18 1.08 0.80 0.77 0.78 0.65 0.67 0.73 0.87 1.12 1.20
1.20 1.12 1.15 1.33 1.54 1.68 1.74 1.81 1.83 1.80 1.75 1.64 1.54 1.43 1.35 1.31 1.26 1.20 1.12 1.03 0.99 0.99 1.00 0.97 0.95 0.96 0.98 1.00 1.02 1.04 1.15 1.24 1.27 1.29 1.11 0.97 0.87 0.73 0.71 0.72 0.80 0.98 1.08